Time,TemperatureF,DewpointF,PressureIn,WindDirection,WindDirectionDegrees,WindSpeedMPH,WindSpeedGustMPH,Humidity,HourlyPrecipIn,Conditions,Clouds,dailyrainin,SoftwareType,DateUTC
2013-06-22 00:01:00,56.6,55.2,30.29,SW,234,0.0,0.0,95,0.00,,---,0.00,VWS V14.01,2013-06-22 04:01:00,
2013-06-22 00:02:00,56.5,55.1,30.29,SW,234,0.0,0.0,95,0.00,,---,0.00,VWS V14.01,2013-06-22 04:02:00,
2013-06-22 00:07:00,56.3,54.9,30.29,SW,234,0.0,0.0,95,0.00,,---,0.00,VWS V14.01,2013-06-22 04:07:00,
2013-06-22 00:12:00,56.1,54.7,30.29,SW,234,0.0,0.0,95,0.00,,---,0.00,VWS V14.01,2013-06-22 04:12:00,
2013-06-22 00:17:00,56.2,55.1,30.29,SW,235,0.0,0.0,96,0.00,,---,0.00,VWS V14.01,2013-06-22 04:17:00,
2013-06-22 00:22:00,56.1,55.0,30.29,SW,235,0.0,0.0,96,0.00,,---,0.00,VWS V14.01,2013-06-22 04:22:00,
2013-06-22 00:27:00,56.0,54.9,30.29,SW,234,0.0,0.0,96,0.00,,---,0.00,VWS V14.01,2013-06-22 04:27:00,
2013-06-22 00:32:00,55.9,54.8,30.30,SW,234,0.0,0.0,96,0.00,,---,0.00,VWS V14.01,2013-06-22 04:32:00,
2013-06-22 00:37:00,55.7,54.6,30.30,SW,235,0.0,0.0,96,0.00,,---,0.00,VWS V14.01,2013-06-22 04:37:00,
2013-06-22 00:42:00,55.6,54.5,30.30,SW,234,0.0,0.0,96,0.00,,---,0.00,VWS V14.01,2013-06-22 04:42:00,
2013-06-22 00:47:00,55.6,54.5,30.29,SW,234,0.0,0.0,96,0.00,,---,0.00,VWS V14.01,2013-06-22 04:47:00,
2013-06-22 00:52:00,55.4,54.3,30.29,SW,235,0.0,0.0,96,0.00,,---,0.00,VWS V14.01,2013-06-22 04:52:00,
2013-06-22 00:57:00,55.2,54.1,30.29,SW,235,0.0,0.0,96,0.00,,---,0.00,VWS V14.01,2013-06-22 04:57:00,
2013-06-22 01:02:00,55.1,54.0,30.29,SW,234,0.0,0.0,96,0.00,,---,0.00,VWS V14.01,2013-06-22 05:02:00,
2013-06-22 01:07:00,55.0,53.9,30.28,SW,235,0.0,0.0,96,0.00,,---,0.00,VWS V14.01,2013-06-22 05:07:00,
2013-06-22 01:12:00,54.9,54.1,30.29,SW,235,0.0,0.0,97,0.00,,---,0.00,VWS V14.01,2013-06-22 05:12:00,
2013-06-22 01:17:00,54.8,54.0,30.29,SW,234,0.0,0.0,97,0.00,,---,0.00,VWS V14.01,2013-06-22 05:17:00,
2013-06-22 01:22:00,54.8,54.0,30.29,SW,234,0.0,0.0,97,0.00,,---,0.00,VWS V14.01,2013-06-22 05:22:00,
2013-06-22 01:27:00,54.8,54.0,30.28,SW,235,0.0,0.0,97,0.00,,---,0.00,VWS V14.01,2013-06-22 05:27:00,
2013-06-22 01:32:00,54.7,53.9,30.29,SW,235,0.0,0.0,97,0.00,,---,0.00,VWS V14.01,2013-06-22 05:32:00,
2013-06-22 01:38:00,54.6,53.8,30.29,SW,235,0.0,0.0,97,0.00,,---,0.00,VWS V14.01,2013-06-22 05:38:00,
2013-06-22 01:43:00,54.6,53.8,30.29,SW,234,0.0,0.0,97,0.00,,---,0.00,VWS V14.01,2013-06-22 05:43:00,
2013-06-22 01:48:00,54.5,53.7,30.29,SW,234,0.0,0.0,97,0.00,,---,0.00,VWS V14.01,2013-06-22 05:48:00,
2013-06-22 01:53:00,54.3,53.5,30.29,SW,235,0.0,0.0,97,0.00,,---,0.00,VWS V14.01,2013-06-22 05:53:00,
2013-06-22 01:58:00,54.3,53.5,30.29,SW,235,0.0,0.0,97,0.00,,---,0.00,VWS V14.01,2013-06-22 05:58:00,
2013-06-22 02:03:00,54.0,53.2,30.29,SW,235,0.0,0.0,97,0.00,,---,0.00,VWS V14.01,2013-06-22 06:03:00,
2013-06-22 02:08:00,53.9,53.1,30.29,SW,234,0.0,0.0,97,0.00,,---,0.00,VWS V14.01,2013-06-22 06:08:00,
2013-06-22 02:13:00,53.6,52.8,30.29,SW,235,0.0,0.0,97,0.00,,---,0.00,VWS V14.01,2013-06-22 06:13:00,
2013-06-22 02:18:00,53.4,52.6,30.29,SW,235,0.0,0.0,97,0.00,,---,0.00,VWS V14.01,2013-06-22 06:18:00,
2013-06-22 02:23:00,53.2,52.4,30.29,SW,235,0.0,0.0,97,0.00,,---,0.00,VWS V14.01,2013-06-22 06:23:00,
2013-06-22 02:28:00,53.2,52.4,30.28,SW,234,0.0,0.0,97,0.00,,---,0.00,VWS V14.01,2013-06-22 06:28:00,
2013-06-22 02:33:00,53.2,52.4,30.29,SW,235,0.0,0.0,97,0.00,,---,0.00,VWS V14.01,2013-06-22 06:33:00,
2013-06-22 02:38:00,53.1,52.3,30.28,SW,235,0.0,0.0,97,0.00,,---,0.00,VWS V14.01,2013-06-22 06:38:00,
2013-06-22 02:43:00,53.0,52.2,30.28,SW,235,0.0,0.0,97,0.00,,---,0.00,VWS V14.01,2013-06-22 06:43:00,
2013-06-22 02:48:00,52.8,52.0,30.28,SW,235,0.0,0.0,97,0.00,,---,0.00,VWS V14.01,2013-06-22 06:48:00,
2013-06-22 02:53:00,52.8,52.0,30.28,SW,235,0.0,0.0,97,0.00,,---,0.00,VWS V14.01,2013-06-22 06:53:00,
2013-06-22 02:58:00,52.7,51.9,30.28,SW,235,0.0,0.0,97,0.00,,---,0.00,VWS V14.01,2013-06-22 06:58:00,
2013-06-22 03:03:00,52.6,51.8,30.28,SW,235,0.0,0.0,97,0.00,,---,0.00,VWS V14.01,2013-06-22 07:03:00,
2013-06-22 03:08:00,52.4,51.6,30.28,SW,234,0.0,0.0,97,0.00,,---,0.00,VWS V14.01,2013-06-22 07:08:00,
2013-06-22 03:13:00,52.3,51.5,30.28,SW,235,0.0,0.0,97,0.00,,---,0.00,VWS V14.01,2013-06-22 07:13:00,
2013-06-22 03:18:00,52.4,51.8,30.28,SW,235,0.0,0.0,98,0.00,,---,0.00,VWS V14.01,2013-06-22 07:18:00,
2013-06-22 03:23:00,52.3,51.8,30.28,SW,235,0.0,0.0,98,0.00,,---,0.00,VWS V14.01,2013-06-22 07:23:00,
2013-06-22 03:28:00,52.2,51.4,30.28,SW,235,0.0,0.0,97,0.00,,---,0.00,VWS V14.01,2013-06-22 07:28:00,
2013-06-22 03:33:00,52.0,51.5,30.28,SW,235,0.0,0.0,98,0.00,,---,0.00,VWS V14.01,2013-06-22 07:33:00,
2013-06-22 03:38:00,52.0,51.5,30.28,SW,235,0.0,0.0,98,0.00,,---,0.00,VWS V14.01,2013-06-22 07:38:00,
2013-06-22 03:43:00,51.9,51.4,30.28,SW,235,0.0,0.0,98,0.00,,---,0.00,VWS V14.01,2013-06-22 07:43:00,
2013-06-22 03:48:00,51.9,51.4,30.28,SW,235,0.0,0.0,98,0.00,,---,0.00,VWS V14.01,2013-06-22 07:48:00,
2013-06-22 03:53:00,51.8,51.3,30.28,SW,235,0.0,0.0,98,0.00,,---,0.00,VWS V14.01,2013-06-22 07:53:00,
2013-06-22 03:59:00,51.8,51.3,30.28,SW,235,0.0,0.0,98,0.00,,---,0.00,VWS V14.01,2013-06-22 07:59:00,
2013-06-22 04:04:00,51.7,51.2,30.27,SW,235,0.0,0.0,98,0.00,,---,0.00,VWS V14.01,2013-06-22 08:04:00,
2013-06-22 04:09:00,51.6,51.1,30.27,SW,235,0.0,0.0,98,0.00,,---,0.00,VWS V14.01,2013-06-22 08:09:00,
2013-06-22 04:14:00,51.6,51.1,30.28,SW,235,0.0,0.0,98,0.00,,---,0.00,VWS V14.01,2013-06-22 08:14:00,
2013-06-22 04:19:00,51.6,51.1,30.28,SW,235,0.0,0.0,98,0.00,,---,0.00,VWS V14.01,2013-06-22 08:19:00,
2013-06-22 04:24:00,51.6,51.1,30.28,SW,235,0.0,0.0,98,0.00,,---,0.00,VWS V14.01,2013-06-22 08:24:00,
2013-06-22 04:29:00,51.5,51.0,30.28,SW,235,0.0,0.0,98,0.00,,---,0.00,VWS V14.01,2013-06-22 08:29:00,
2013-06-22 04:34:00,51.4,50.9,30.29,SW,235,0.0,0.0,98,0.00,,---,0.00,VWS V14.01,2013-06-22 08:34:00,
2013-06-22 04:39:00,51.5,51.0,30.29,SW,235,0.0,0.0,98,0.00,,---,0.00,VWS V14.01,2013-06-22 08:39:00,
2013-06-22 04:44:00,51.6,51.1,30.29,SW,235,0.0,0.0,98,0.00,,---,0.00,VWS V14.01,2013-06-22 08:44:00,
2013-06-22 04:49:00,51.6,51.1,30.29,SW,235,0.0,0.0,98,0.00,,---,0.00,VWS V14.01,2013-06-22 08:49:00,
2013-06-22 04:54:00,51.7,51.2,30.29,SW,235,0.0,0.0,98,0.00,,---,0.00,VWS V14.01,2013-06-22 08:54:00,
2013-06-22 04:59:00,51.6,51.1,30.29,SW,235,0.0,0.0,98,0.00,,---,0.00,VWS V14.01,2013-06-22 08:59:00,
2013-06-22 05:04:00,51.6,51.1,30.29,SW,235,0.0,0.0,98,0.00,,---,0.00,VWS V14.01,2013-06-22 09:04:00,
2013-06-22 05:09:00,51.4,50.9,30.29,SW,235,0.0,0.0,98,0.00,,---,0.00,VWS V14.01,2013-06-22 09:09:00,
2013-06-22 05:14:00,51.3,50.8,30.29,SW,235,0.0,0.0,98,0.00,,---,0.00,VWS V14.01,2013-06-22 09:14:00,
2013-06-22 05:19:00,51.3,50.8,30.29,SW,235,0.0,0.0,98,0.00,,---,0.00,VWS V14.01,2013-06-22 09:19:00,
2013-06-22 05:24:00,51.2,50.7,30.29,SW,235,0.0,0.0,98,0.00,,---,0.00,VWS V14.01,2013-06-22 09:24:00,
2013-06-22 05:29:00,51.1,50.6,30.29,SW,235,0.0,0.0,98,0.00,,---,0.00,VWS V14.01,2013-06-22 09:29:00,
2013-06-22 05:34:00,51.0,50.5,30.29,SW,235,0.0,0.0,98,0.00,,---,0.00,VWS V14.01,2013-06-22 09:34:00,
2013-06-22 05:39:00,50.9,50.4,30.29,SW,235,0.0,0.0,98,0.00,,---,0.00,VWS V14.01,2013-06-22 09:39:00,
2013-06-22 05:44:00,50.9,50.4,30.29,SW,235,0.0,0.0,98,0.00,,---,0.00,VWS V14.01,2013-06-22 09:44:00,
2013-06-22 05:49:00,50.9,50.4,30.29,SW,235,0.0,0.0,98,0.00,,---,0.00,VWS V14.01,2013-06-22 09:49:00,
2013-06-22 05:54:00,50.9,50.4,30.29,SW,235,0.0,0.0,98,0.00,,---,0.00,VWS V14.01,2013-06-22 09:54:00,
2013-06-22 05:59:00,51.0,50.5,30.29,SW,235,0.0,0.0,98,0.00,,---,0.00,VWS V14.01,2013-06-22 09:59:00,
2013-06-22 06:04:00,51.2,50.9,30.29,SW,235,0.0,0.0,99,0.00,,---,0.00,VWS V14.01,2013-06-22 10:04:00,
2013-06-22 06:09:00,51.2,50.7,30.29,SW,235,0.0,0.0,98,0.00,,---,0.00,VWS V14.01,2013-06-22 10:09:00,
2013-06-22 06:14:00,51.3,51.0,30.29,SW,235,0.0,0.0,99,0.00,,---,0.00,VWS V14.01,2013-06-22 10:14:00,
2013-06-22 06:19:00,51.5,51.2,30.29,SW,235,0.0,0.0,99,0.00,,---,0.00,VWS V14.01,2013-06-22 10:19:00,
2013-06-22 06:24:00,51.7,51.4,30.29,SW,235,0.0,0.0,99,0.00,,---,0.00,VWS V14.01,2013-06-22 10:24:00,
2013-06-22 06:29:00,51.8,51.5,30.29,SW,235,0.0,0.0,99,0.00,,---,0.00,VWS V14.01,2013-06-22 10:29:00,
2013-06-22 06:35:00,52.0,51.7,30.29,SW,235,0.0,0.0,99,0.00,,---,0.00,VWS V14.01,2013-06-22 10:35:00,
2013-06-22 06:40:00,52.2,51.9,30.29,SW,235,0.0,0.0,99,0.00,,---,0.00,VWS V14.01,2013-06-22 10:40:00,
2013-06-22 06:45:00,52.5,52.2,30.29,SW,235,0.0,0.0,99,0.00,,---,0.00,VWS V14.01,2013-06-22 10:45:00,
2013-06-22 06:50:00,53.0,52.7,30.30,SW,235,0.0,0.0,99,0.00,,---,0.00,VWS V14.01,2013-06-22 10:50:00,
2013-06-22 06:55:00,53.3,53.0,30.30,SW,235,0.0,0.0,99,0.00,,---,0.00,VWS V14.01,2013-06-22 10:55:00,
2013-06-22 07:00:00,53.9,53.6,30.30,SW,235,0.0,0.0,99,0.00,,---,0.00,VWS V14.01,2013-06-22 11:00:00,
2013-06-22 07:05:00,54.5,54.2,30.30,SW,235,0.0,0.0,99,0.00,,---,0.00,VWS V14.01,2013-06-22 11:05:00,
2013-06-22 07:10:00,55.1,54.8,30.29,SW,235,0.0,0.0,99,0.00,,---,0.00,VWS V14.01,2013-06-22 11:10:00,
2013-06-22 07:15:00,55.7,55.4,30.29,SW,235,0.0,0.0,99,0.00,,---,0.00,VWS V14.01,2013-06-22 11:15:00,
2013-06-22 07:20:00,56.3,56.0,30.29,SW,235,0.0,0.0,99,0.00,,---,0.00,VWS V14.01,2013-06-22 11:20:00,
2013-06-22 07:25:00,58.6,58.3,30.29,SW,235,0.0,0.0,99,0.00,,---,0.00,VWS V14.01,2013-06-22 11:25:00,
2013-06-22 07:30:00,59.7,59.4,30.29,SW,235,0.0,0.0,99,0.00,,---,0.00,VWS V14.01,2013-06-22 11:30:00,
2013-06-22 07:35:00,60.9,60.6,30.29,SW,235,0.0,0.0,99,0.00,,---,0.00,VWS V14.01,2013-06-22 11:35:00,
2013-06-22 07:40:00,61.9,61.6,30.29,SW,235,0.0,0.0,99,0.00,,---,0.00,VWS V14.01,2013-06-22 11:40:00,
2013-06-22 07:45:00,62.8,62.5,30.29,South,175,0.0,0.0,99,0.00,,---,0.00,VWS V14.01,2013-06-22 11:45:00,
2013-06-22 07:50:00,62.6,62.0,30.28,SSW,211,0.0,2.0,98,0.00,,---,0.00,VWS V14.01,2013-06-22 11:50:00,
2013-06-22 07:55:00,63.2,62.3,30.28,SSW,207,0.0,2.0,97,0.00,,---,0.00,VWS V14.01,2013-06-22 11:55:00,
2013-06-22 08:00:00,64.3,62.8,30.28,SW,219,0.0,0.0,95,0.00,,---,0.00,VWS V14.01,2013-06-22 12:00:00,
2013-06-22 08:05:00,65.2,63.1,30.28,SW,231,1.0,2.0,93,0.00,,---,0.00,VWS V14.01,2013-06-22 12:05:00,
2013-06-22 08:10:00,66.0,63.6,30.28,SSW,213,0.0,2.0,92,0.00,,---,0.00,VWS V14.01,2013-06-22 12:10:00,
2013-06-22 08:15:00,66.6,63.3,30.28,SSW,193,0.0,4.0,89,0.00,,---,0.00,VWS V14.01,2013-06-22 12:15:00,
2013-06-22 08:20:00,67.2,63.5,30.28,South,181,0.0,4.0,88,0.00,,---,0.00,VWS V14.01,2013-06-22 12:20:00,
2013-06-22 08:25:00,67.6,63.3,30.28,South,172,1.0,4.0,86,0.00,,---,0.00,VWS V14.01,2013-06-22 12:25:00,
2013-06-22 08:30:00,67.9,63.2,30.28,West,265,0.0,0.0,85,0.00,,---,0.00,VWS V14.01,2013-06-22 12:30:00,
2013-06-22 08:35:00,69.2,63.8,30.28,SE,146,0.0,1.0,83,0.00,,---,0.00,VWS V14.01,2013-06-22 12:35:00,
2013-06-22 08:40:00,69.5,64.1,30.28,SE,141,0.0,3.0,83,0.00,,---,0.00,VWS V14.01,2013-06-22 12:40:00,
2013-06-22 08:45:00,70.2,63.8,30.28,SW,218,1.0,4.0,80,0.00,,---,0.00,VWS V14.01,2013-06-22 12:45:00,
2013-06-22 08:50:00,70.1,64.0,30.28,SW,231,0.0,4.0,81,0.00,,---,0.00,VWS V14.01,2013-06-22 12:50:00,
2013-06-22 08:55:00,71.0,63.8,30.28,South,174,2.0,4.0,78,0.00,,---,0.00,VWS V14.01,2013-06-22 12:55:00,
2013-06-22 09:00:00,71.1,62.8,30.28,SSW,211,2.0,2.0,75,0.00,,---,0.00,VWS V14.01,2013-06-22 13:00:00,
2013-06-22 09:06:00,71.4,63.5,30.28,East,80,1.0,2.0,76,0.00,,---,0.00,VWS V14.01,2013-06-22 13:06:00,
2013-06-22 09:11:00,71.6,63.6,30.28,ENE,77,0.0,2.0,76,0.00,,---,0.00,VWS V14.01,2013-06-22 13:11:00,
2013-06-22 09:16:00,72.6,63.8,30.28,ENE,61,0.0,2.0,74,0.00,,---,0.00,VWS V14.01,2013-06-22 13:16:00,
2013-06-22 09:21:00,73.2,62.8,30.28,WSW,241,0.0,2.0,70,0.00,,---,0.00,VWS V14.01,2013-06-22 13:21:00,
2013-06-22 09:26:00,73.6,61.5,30.28,West,269,0.0,2.0,66,0.00,,---,0.00,VWS V14.01,2013-06-22 13:26:00,
2013-06-22 09:31:00,73.8,60.0,30.28,ESE,112,1.0,1.0,62,0.00,,---,0.00,VWS V14.01,2013-06-22 13:31:00,
2013-06-22 09:36:00,74.0,60.2,30.28,East,96,1.0,2.0,62,0.00,,---,0.00,VWS V14.01,2013-06-22 13:36:00,
2013-06-22 09:41:00,74.0,62.8,30.28,East,84,0.0,2.0,68,0.00,,---,0.00,VWS V14.01,2013-06-22 13:41:00,
2013-06-22 09:46:00,74.9,63.2,30.28,East,92,1.0,2.0,67,0.00,,---,0.00,VWS V14.01,2013-06-22 13:46:00,
2013-06-22 09:51:00,75.6,62.1,30.28,ESE,108,0.0,2.0,63,0.00,,---,0.00,VWS V14.01,2013-06-22 13:51:00,
2013-06-22 09:56:00,76.6,62.6,30.28,ESE,112,0.0,2.0,62,0.00,,---,0.00,VWS V14.01,2013-06-22 13:56:00,
2013-06-22 10:01:00,76.7,61.8,30.28,ESE,102,1.0,2.0,60,0.00,,---,0.00,VWS V14.01,2013-06-22 14:01:00,
2013-06-22 10:06:00,76.6,61.7,30.29,ENE,62,1.0,2.0,60,0.00,,---,0.00,VWS V14.01,2013-06-22 14:06:00,
2013-06-22 10:11:00,76.5,62.5,30.28,ESE,102,1.0,2.0,62,0.00,,---,0.00,VWS V14.01,2013-06-22 14:11:00,
2013-06-22 10:16:00,76.3,61.4,30.28,East,89,1.0,2.0,60,0.00,,---,0.00,VWS V14.01,2013-06-22 14:16:00,
2013-06-22 10:21:00,76.3,61.9,30.28,ENE,78,1.0,2.0,61,0.00,,---,0.00,VWS V14.01,2013-06-22 14:21:00,
2013-06-22 10:26:00,76.8,62.8,30.28,East,79,2.0,2.0,62,0.00,,---,0.00,VWS V14.01,2013-06-22 14:26:00,
2013-06-22 10:31:00,77.4,62.4,30.28,East,96,0.0,0.0,60,0.00,,---,0.00,VWS V14.01,2013-06-22 14:31:00,
2013-06-22 10:36:00,77.7,63.7,30.28,NE,56,2.0,2.0,62,0.00,,---,0.00,VWS V14.01,2013-06-22 14:36:00,
2013-06-22 10:41:00,77.5,63.0,30.29,NNE,20,2.0,2.0,61,0.00,,---,0.00,VWS V14.01,2013-06-22 14:41:00,
2013-06-22 10:46:00,78.4,63.8,30.29,ENE,62,0.0,2.0,61,0.00,,---,0.00,VWS V14.01,2013-06-22 14:46:00,
2013-06-22 10:51:00,79.7,61.6,30.29,ESE,102,0.0,2.0,54,0.00,,---,0.00,VWS V14.01,2013-06-22 14:51:00,
2013-06-22 10:56:00,80.1,62.5,30.29,SW,226,0.0,2.0,55,0.00,,---,0.00,VWS V14.01,2013-06-22 14:56:00,
2013-06-22 11:01:00,79.7,61.6,30.28,West,275,1.0,2.0,54,0.00,,---,0.00,VWS V14.01,2013-06-22 15:01:00,
2013-06-22 11:06:00,79.4,61.3,30.28,ENE,70,2.0,2.0,54,0.00,,---,0.00,VWS V14.01,2013-06-22 15:06:00,
2013-06-22 11:11:00,78.7,62.2,30.29,ESE,106,1.0,3.0,57,0.00,,---,0.00,VWS V14.01,2013-06-22 15:11:00,
2013-06-22 11:16:00,80.1,61.4,30.29,SSW,210,0.0,3.0,53,0.00,,---,0.00,VWS V14.01,2013-06-22 15:16:00,
2013-06-22 11:21:00,80.3,60.0,30.29,ESE,117,0.0,4.0,50,0.00,,---,0.00,VWS V14.01,2013-06-22 15:21:00,
2013-06-22 11:26:00,80.5,61.8,30.29,NE,44,0.0,4.0,53,0.00,,---,0.00,VWS V14.01,2013-06-22 15:26:00,
2013-06-22 11:31:00,82.1,64.3,30.28,ENE,75,1.0,1.0,55,0.00,,---,0.00,VWS V14.01,2013-06-22 15:31:00,
2013-06-22 11:37:00,82.7,59.2,30.28,SW,233,0.0,2.0,45,0.00,,---,0.00,VWS V14.01,2013-06-22 15:37:00,
2013-06-22 11:42:00,83.0,58.9,30.28,South,174,1.0,2.0,44,0.00,,---,0.00,VWS V14.01,2013-06-22 15:42:00,
2013-06-22 11:47:00,82.4,60.2,30.28,WSW,245,1.0,3.0,47,0.00,,---,0.00,VWS V14.01,2013-06-22 15:47:00,
2013-06-22 11:52:00,82.8,58.7,30.28,South,171,2.0,3.0,44,0.00,,---,0.00,VWS V14.01,2013-06-22 15:52:00,
2013-06-22 11:57:00,83.6,59.4,30.28,SW,223,0.0,3.0,44,0.00,,---,0.00,VWS V14.01,2013-06-22 15:57:00,
2013-06-22 12:02:00,83.9,57.0,30.28,WSW,249,1.0,2.0,40,0.00,,---,0.00,VWS V14.01,2013-06-22 16:02:00,
2013-06-22 12:07:00,83.4,57.3,30.28,SW,225,1.0,2.0,41,0.00,,---,0.00,VWS V14.01,2013-06-22 16:07:00,
2013-06-22 12:12:00,84.1,58.5,30.28,ESE,114,0.0,2.0,42,0.00,,---,0.00,VWS V14.01,2013-06-22 16:12:00,
2013-06-22 12:17:00,84.1,58.5,30.28,SW,220,0.0,6.0,42,0.00,,---,0.00,VWS V14.01,2013-06-22 16:17:00,
2013-06-22 12:22:00,83.4,58.6,30.28,East,87,1.0,6.0,43,0.00,,---,0.00,VWS V14.01,2013-06-22 16:22:00,
2013-06-22 12:27:00,84.5,60.8,30.28,ESE,111,0.0,6.0,45,0.00,,---,0.00,VWS V14.01,2013-06-22 16:27:00,
2013-06-22 12:32:00,85.8,60.1,30.27,WSW,248,0.0,1.0,42,0.00,,---,0.00,VWS V14.01,2013-06-22 16:32:00,
2013-06-22 12:37:00,85.1,59.5,30.27,South,172,2.0,5.0,42,0.00,,---,0.00,VWS V14.01,2013-06-22 16:37:00,
2013-06-22 12:42:00,84.3,59.4,30.28,NE,37,4.0,5.0,43,0.00,,---,0.00,VWS V14.01,2013-06-22 16:42:00,
2013-06-22 12:47:00,84.6,61.6,30.28,WNW,295,3.0,5.0,46,0.00,,---,0.00,VWS V14.01,2013-06-22 16:47:00,
2013-06-22 12:52:00,85.0,63.1,30.28,West,267,1.0,5.0,48,0.00,,---,0.00,VWS V14.01,2013-06-22 16:52:00,
2013-06-22 12:57:00,85.6,61.8,30.27,NW,305,0.0,5.0,45,0.00,,---,0.00,VWS V14.01,2013-06-22 16:57:00,
2013-06-22 13:02:00,85.9,60.2,30.27,SW,222,2.0,4.0,42,0.00,,---,0.00,VWS V14.01,2013-06-22 17:02:00,
2013-06-22 13:07:00,84.6,61.6,30.27,WSW,239,1.0,8.0,46,0.00,,---,0.00,VWS V14.01,2013-06-22 17:07:00,
2013-06-22 13:12:00,85.0,60.7,30.27,SSW,211,1.0,8.0,44,0.00,,---,0.00,VWS V14.01,2013-06-22 17:12:00,
2013-06-22 13:17:00,84.9,61.2,30.26,SSW,210,0.0,8.0,45,0.00,,---,0.00,VWS V14.01,2013-06-22 17:17:00,
2013-06-22 13:22:00,86.6,63.4,30.26,ENE,65,1.0,8.0,46,0.00,,---,0.00,VWS V14.01,2013-06-22 17:22:00,
2013-06-22 13:27:00,86.1,60.3,30.26,NE,45,3.0,8.0,42,0.00,,---,0.00,VWS V14.01,2013-06-22 17:27:00,
2013-06-22 13:32:00,85.8,61.4,30.26,WSW,248,1.0,2.0,44,0.00,,---,0.00,VWS V14.01,2013-06-22 17:32:00,
2013-06-22 13:37:00,85.7,63.2,30.26,ENE,60,1.0,2.0,47,0.00,,---,0.00,VWS V14.01,2013-06-22 17:37:00,
2013-06-22 13:42:00,85.9,59.5,30.26,SW,220,5.0,5.0,41,0.00,,---,0.00,VWS V14.01,2013-06-22 17:42:00,
2013-06-22 13:47:00,84.6,60.3,30.26,West,271,2.0,6.0,44,0.00,,---,0.00,VWS V14.01,2013-06-22 17:47:00,
2013-06-22 13:52:00,85.1,60.1,30.26,ESE,120,0.0,6.0,43,0.00,,---,0.00,VWS V14.01,2013-06-22 17:52:00,
2013-06-22 13:57:00,85.5,60.5,30.26,NW,312,1.0,6.0,43,0.00,,---,0.00,VWS V14.01,2013-06-22 17:57:00,
2013-06-22 14:32:00,86.8,58.9,30.26,NNW,342,1.0,1.0,39,0.00,,---,0.00,VWS V14.01,2013-06-22 18:32:00,
2013-06-22 14:37:00,86.2,61.8,30.26,SE,141,0.0,1.0,44,0.00,,---,0.00,VWS V14.01,2013-06-22 18:37:00,
2013-06-22 14:42:00,85.9,62.7,30.25,SSW,212,0.0,3.0,46,0.00,,---,0.00,VWS V14.01,2013-06-22 18:42:00,
2013-06-22 14:47:00,87.2,61.3,30.25,ESE,119,1.0,3.0,42,0.00,,---,0.00,VWS V14.01,2013-06-22 18:47:00,
2013-06-22 14:52:00,87.2,61.3,30.25,WNW,293,0.0,3.0,42,0.00,,---,0.00,VWS V14.01,2013-06-22 18:52:00,
2013-06-22 14:57:00,86.3,61.8,30.25,NNE,32,0.0,3.0,44,0.00,,---,0.00,VWS V14.01,2013-06-22 18:57:00,
2013-06-22 15:02:00,86.0,61.6,30.24,East,96,1.0,1.0,44,0.00,,---,0.00,VWS V14.01,2013-06-22 19:02:00,
2013-06-22 15:07:00,86.1,63.5,30.24,SSE,161,0.0,1.0,47,0.00,,---,0.00,VWS V14.01,2013-06-22 19:07:00,
2013-06-22 15:12:00,86.1,59.0,30.24,SW,215,1.0,2.0,40,0.00,,---,0.00,VWS V14.01,2013-06-22 19:12:00,
2013-06-22 15:17:00,86.4,64.4,30.24,SSE,161,1.0,6.0,48,0.00,,---,0.00,VWS V14.01,2013-06-22 19:17:00,
2013-06-22 15:22:00,85.1,64.4,30.24,ENE,75,1.0,6.0,50,0.00,,---,0.00,VWS V14.01,2013-06-22 19:22:00,
2013-06-22 15:27:00,84.5,64.4,30.23,SW,231,0.0,6.0,51,0.00,,---,0.00,VWS V14.01,2013-06-22 19:27:00,
2013-06-22 15:32:00,84.7,64.0,30.23,ENE,77,3.0,4.0,50,0.00,,---,0.00,VWS V14.01,2013-06-22 19:32:00,
2013-06-22 15:37:00,84.1,64.6,30.23,SSE,152,2.0,4.0,52,0.00,,---,0.00,VWS V14.01,2013-06-22 19:37:00,
2013-06-22 15:42:00,83.1,64.8,30.23,ENE,72,1.0,7.0,54,0.00,,---,0.00,VWS V14.01,2013-06-22 19:42:00,
2013-06-22 15:47:00,82.8,63.4,30.23,South,169,2.0,7.0,52,0.00,,---,0.00,VWS V14.01,2013-06-22 19:47:00,
2013-06-22 15:52:00,82.0,64.8,30.23,SE,129,3.0,8.0,56,0.00,,---,0.00,VWS V14.01,2013-06-22 19:52:00,
2013-06-22 15:57:00,82.2,63.4,30.22,West,264,2.0,8.0,53,0.00,,---,0.00,VWS V14.01,2013-06-22 19:57:00,
2013-06-22 16:02:00,82.0,63.7,30.22,NW,314,2.0,5.0,54,0.00,,---,0.00,VWS V14.01,2013-06-22 20:02:00,
2013-06-22 16:07:00,81.5,62.7,30.22,SSE,149,1.0,8.0,53,0.00,,---,0.00,VWS V14.01,2013-06-22 20:07:00,
2013-06-22 16:12:00,81.5,62.7,30.22,ENE,77,3.0,8.0,53,0.00,,---,0.00,VWS V14.01,2013-06-22 20:12:00,
2013-06-22 16:17:00,81.4,63.2,30.22,ESE,103,3.0,8.0,54,0.00,,---,0.00,VWS V14.01,2013-06-22 20:17:00,
2013-06-22 16:22:00,81.0,62.8,30.22,East,99,4.0,8.0,54,0.00,,---,0.00,VWS V14.01,2013-06-22 20:22:00,
2013-06-22 16:27:00,81.3,63.1,30.22,SSW,195,2.0,8.0,54,0.00,,---,0.00,VWS V14.01,2013-06-22 20:27:00,
2013-06-22 16:32:00,81.2,63.0,30.22,South,188,0.0,4.0,54,0.00,,---,0.00,VWS V14.01,2013-06-22 20:32:00,
2013-06-22 16:37:00,80.9,62.7,30.22,West,264,2.0,8.0,54,0.00,,---,0.00,VWS V14.01,2013-06-22 20:37:00,
2013-06-22 16:42:00,80.2,62.6,30.21,SW,233,1.0,8.0,55,0.00,,---,0.00,VWS V14.01,2013-06-22 20:42:00,
2013-06-22 16:47:00,80.6,63.5,30.21,SE,131,0.0,8.0,56,0.00,,---,0.00,VWS V14.01,2013-06-22 20:47:00,
2013-06-22 16:53:00,80.7,62.5,30.21,SSW,200,0.0,8.0,54,0.00,,---,0.00,VWS V14.01,2013-06-22 20:53:00,
2013-06-22 16:58:00,80.8,63.7,30.21,NNW,345,2.0,8.0,56,0.00,,---,0.00,VWS V14.01,2013-06-22 20:58:00,
2013-06-22 17:03:00,80.8,63.1,30.21,SE,139,3.0,5.0,55,0.00,,---,0.00,VWS V14.01,2013-06-22 21:03:00,
2013-06-22 17:08:00,80.3,62.7,30.20,WSW,248,1.0,5.0,55,0.00,,---,0.00,VWS V14.01,2013-06-22 21:08:00,
2013-06-22 17:13:00,80.3,62.2,30.20,SSE,155,1.0,5.0,54,0.00,,---,0.00,VWS V14.01,2013-06-22 21:13:00,
2013-06-22 17:18:00,80.4,62.2,30.20,South,190,0.0,5.0,54,0.00,,---,0.00,VWS V14.01,2013-06-22 21:18:00,
2013-06-22 17:23:00,80.3,62.2,30.20,SSW,211,2.0,5.0,54,0.00,,---,0.00,VWS V14.01,2013-06-22 21:23:00,
2013-06-22 17:28:00,80.1,62.5,30.20,WSW,239,1.0,5.0,55,0.00,,---,0.00,VWS V14.01,2013-06-22 21:28:00,
2013-06-22 17:33:00,79.6,62.5,30.20,West,271,1.0,4.0,56,0.00,,---,0.00,VWS V14.01,2013-06-22 21:33:00,
2013-06-22 17:38:00,79.4,61.3,30.20,SW,227,2.0,11.0,54,0.00,,---,0.00,VWS V14.01,2013-06-22 21:38:00,
2013-06-22 17:43:00,79.1,61.6,30.19,SSW,210,0.0,11.0,55,0.00,,---,0.00,VWS V14.01,2013-06-22 21:43:00,
2013-06-22 17:48:00,79.0,62.5,30.19,SSW,195,1.0,11.0,57,0.00,,---,0.00,VWS V14.01,2013-06-22 21:48:00,
2013-06-22 17:53:00,79.0,63.0,30.19,WSW,250,1.0,11.0,58,0.00,,---,0.00,VWS V14.01,2013-06-22 21:53:00,
2013-06-22 17:58:00,78.6,61.1,30.19,West,268,0.0,11.0,55,0.00,,---,0.00,VWS V14.01,2013-06-22 21:58:00,
2013-06-22 18:03:00,78.1,61.6,30.19,South,181,3.0,5.0,57,0.00,,---,0.00,VWS V14.01,2013-06-22 22:03:00,
2013-06-22 18:08:00,77.6,60.2,30.19,WNW,300,3.0,7.0,55,0.00,,---,0.00,VWS V14.01,2013-06-22 22:08:00,
2013-06-22 18:13:00,77.4,60.5,30.20,West,271,0.0,7.0,56,0.00,,---,0.00,VWS V14.01,2013-06-22 22:13:00,
2013-06-22 18:18:00,77.3,59.9,30.19,SW,235,1.0,7.0,55,0.00,,---,0.00,VWS V14.01,2013-06-22 22:18:00,
2013-06-22 18:23:00,77.4,60.5,30.19,West,275,0.0,7.0,56,0.00,,---,0.00,VWS V14.01,2013-06-22 22:23:00,
2013-06-22 18:28:00,77.0,60.6,30.19,West,264,1.0,7.0,57,0.00,,---,0.00,VWS V14.01,2013-06-22 22:28:00,
2013-06-22 18:33:00,76.3,60.0,30.19,West,260,3.0,4.0,57,0.00,,---,0.00,VWS V14.01,2013-06-22 22:33:00,
2013-06-22 18:38:00,75.7,57.9,30.19,West,276,3.0,6.0,54,0.00,,---,0.00,VWS V14.01,2013-06-22 22:38:00,
2013-06-22 18:43:00,75.3,59.0,30.19,WSW,240,1.0,6.0,57,0.00,,---,0.00,VWS V14.01,2013-06-22 22:43:00,
2013-06-22 18:48:00,74.9,59.6,30.19,WNW,293,2.0,6.0,59,0.00,,---,0.00,VWS V14.01,2013-06-22 22:48:00,
2013-06-22 18:53:00,74.4,58.7,30.19,WSW,240,1.0,8.0,58,0.00,,---,0.00,VWS V14.01,2013-06-22 22:53:00,
2013-06-22 18:59:00,74.0,59.7,30.18,West,271,1.0,8.0,61,0.00,,---,0.00,VWS V14.01,2013-06-22 22:59:00,
2013-06-22 19:04:00,73.7,59.4,30.18,SW,219,2.0,6.0,61,0.00,,---,0.00,VWS V14.01,2013-06-22 23:04:00,
2013-06-22 19:09:00,73.4,59.2,30.18,SW,226,0.0,6.0,61,0.00,,---,0.00,VWS V14.01,2013-06-22 23:09:00,
2013-06-22 19:14:00,73.0,59.2,30.18,SW,228,2.0,6.0,62,0.00,,---,0.00,VWS V14.01,2013-06-22 23:14:00,
2013-06-22 19:19:00,72.7,60.3,30.18,WSW,245,0.0,6.0,65,0.00,,---,0.00,VWS V14.01,2013-06-22 23:19:00,
2013-06-22 19:24:00,72.4,58.7,30.18,WSW,245,4.0,6.0,62,0.00,,---,0.00,VWS V14.01,2013-06-22 23:24:00,
2013-06-22 19:29:00,72.1,58.4,30.18,South,188,2.0,6.0,62,0.00,,---,0.00,VWS V14.01,2013-06-22 23:29:00,
2013-06-22 19:34:00,71.8,58.1,30.18,SSW,203,2.0,6.0,62,0.00,,---,0.00,VWS V14.01,2013-06-22 23:34:00,
2013-06-22 19:39:00,71.5,57.8,30.18,West,271,0.0,6.0,62,0.00,,---,0.00,VWS V14.01,2013-06-22 23:39:00,
2013-06-22 19:44:00,71.2,58.4,30.18,West,273,1.0,6.0,64,0.00,,---,0.00,VWS V14.01,2013-06-22 23:44:00,
2013-06-22 19:49:00,71.0,57.3,30.18,North,352,0.0,6.0,62,0.00,,---,0.00,VWS V14.01,2013-06-22 23:49:00,
2013-06-22 19:54:00,70.8,57.2,30.18,WNW,298,0.0,6.0,62,0.00,,---,0.00,VWS V14.01,2013-06-22 23:54:00,
2013-06-22 19:59:00,70.6,57.4,30.18,West,265,1.0,6.0,63,0.00,,---,0.00,VWS V14.01,2013-06-22 23:59:00,
2013-06-22 20:04:00,70.3,57.6,30.18,SW,229,0.0,1.0,64,0.00,,---,0.00,VWS V14.01,2013-06-23 00:04:00,
2013-06-22 20:09:00,69.9,57.2,30.19,SW,219,0.0,2.0,64,0.00,,---,0.00,VWS V14.01,2013-06-23 00:09:00,
2013-06-22 20:14:00,69.7,57.8,30.19,SW,221,0.0,2.0,66,0.00,,---,0.00,VWS V14.01,2013-06-23 00:14:00,
2013-06-22 20:19:00,69.4,58.0,30.19,SSW,199,0.0,2.0,67,0.00,,---,0.00,VWS V14.01,2013-06-23 00:19:00,
2013-06-22 20:24:00,69.0,58.0,30.19,South,184,0.0,3.0,68,0.00,,---,0.00,VWS V14.01,2013-06-23 00:24:00,
2013-06-22 20:29:00,68.6,58.0,30.19,SW,233,0.0,3.0,69,0.00,,---,0.00,VWS V14.01,2013-06-23 00:29:00,
2013-06-22 20:34:00,68.3,58.2,30.19,WSW,245,0.0,3.0,70,0.00,,---,0.00,VWS V14.01,2013-06-23 00:34:00,
2013-06-22 20:39:00,68.1,58.0,30.19,WSW,239,0.0,3.0,70,0.00,,---,0.00,VWS V14.01,2013-06-23 00:39:00,
2013-06-22 20:44:00,67.9,57.8,30.20,WSW,240,0.0,3.0,70,0.00,,---,0.00,VWS V14.01,2013-06-23 00:44:00,
2013-06-22 20:49:00,67.6,57.5,30.20,SW,226,0.0,3.0,70,0.00,,---,0.00,VWS V14.01,2013-06-23 00:49:00,
2013-06-22 20:54:00,67.4,58.5,30.20,SW,223,1.0,3.0,73,0.00,,---,0.00,VWS V14.01,2013-06-23 00:54:00,
2013-06-22 20:59:00,67.3,58.0,30.20,SW,232,0.0,3.0,72,0.00,,---,0.00,VWS V14.01,2013-06-23 00:59:00,
2013-06-22 21:05:00,67.2,57.5,30.20,South,181,0.0,2.0,71,0.00,,---,0.00,VWS V14.01,2013-06-23 01:05:00,
2013-06-22 21:10:00,66.9,57.2,30.20,South,182,0.0,2.0,71,0.00,,---,0.00,VWS V14.01,2013-06-23 01:10:00,
2013-06-22 21:15:00,66.7,57.0,30.20,West,276,0.0,2.0,71,0.00,,---,0.00,VWS V14.01,2013-06-23 01:15:00,
2013-06-22 21:20:00,66.5,57.6,30.20,SSE,161,0.0,2.0,73,0.00,,---,0.00,VWS V14.01,2013-06-23 01:20:00,
2013-06-22 21:25:00,66.3,57.4,30.21,SSE,161,0.0,2.0,73,0.00,,---,0.00,VWS V14.01,2013-06-23 01:25:00,
2013-06-22 21:30:00,66.1,57.2,30.21,SSE,161,0.0,2.0,73,0.00,,---,0.00,VWS V14.01,2013-06-23 01:30:00,
2013-06-22 21:35:00,65.9,57.4,30.21,SSE,161,0.0,0.0,74,0.00,,---,0.00,VWS V14.01,2013-06-23 01:35:00,
2013-06-22 21:40:00,65.6,57.5,30.21,SSE,161,0.0,0.0,75,0.00,,---,0.00,VWS V14.01,2013-06-23 01:40:00,
2013-06-22 21:45:00,65.1,57.0,30.21,SSE,161,0.0,0.0,75,0.00,,---,0.00,VWS V14.01,2013-06-23 01:45:00,
2013-06-22 21:50:00,64.8,56.3,30.22,SSE,161,0.0,0.0,74,0.00,,---,0.00,VWS V14.01,2013-06-23 01:50:00,
2013-06-22 21:55:00,64.7,57.3,30.22,SSE,161,0.0,0.0,77,0.00,,---,0.00,VWS V14.01,2013-06-23 01:55:00,
2013-06-22 22:00:00,64.5,57.1,30.22,SSE,161,0.0,0.0,77,0.00,,---,0.00,VWS V14.01,2013-06-23 02:00:00,
2013-06-22 22:05:00,64.3,57.3,30.21,SSE,161,0.0,0.0,78,0.00,,---,0.00,VWS V14.01,2013-06-23 02:05:00,
2013-06-22 22:10:00,64.1,57.1,30.21,SSE,161,0.0,0.0,78,0.00,,---,0.00,VWS V14.01,2013-06-23 02:10:00,
2013-06-22 22:15:00,63.8,57.2,30.21,SSE,161,0.0,0.0,79,0.00,,---,0.00,VWS V14.01,2013-06-23 02:15:00,
2013-06-22 22:20:00,63.6,57.3,30.21,SSE,161,0.0,0.0,80,0.00,,---,0.00,VWS V14.01,2013-06-23 02:20:00,
2013-06-22 22:25:00,63.3,57.4,30.21,SSE,161,0.0,0.0,81,0.00,,---,0.00,VWS V14.01,2013-06-23 02:25:00,
2013-06-22 22:30:00,63.2,58.0,30.21,SSE,161,0.0,0.0,83,0.00,,---,0.00,VWS V14.01,2013-06-23 02:30:00,
2013-06-22 22:35:00,63.0,57.4,30.22,SSE,161,0.0,0.0,82,0.00,,---,0.00,VWS V14.01,2013-06-23 02:35:00,
2013-06-22 22:40:00,62.9,57.0,30.22,SSE,161,0.0,0.0,81,0.00,,---,0.00,VWS V14.01,2013-06-23 02:40:00,
2013-06-22 22:45:00,62.9,57.0,30.22,SSE,161,0.0,0.0,81,0.00,,---,0.00,VWS V14.01,2013-06-23 02:45:00,
2013-06-22 22:50:00,62.8,56.9,30.22,SSE,161,0.0,0.0,81,0.00,,---,0.00,VWS V14.01,2013-06-23 02:50:00,
2013-06-22 22:55:00,62.8,57.9,30.22,SSE,161,0.0,0.0,84,0.00,,---,0.00,VWS V14.01,2013-06-23 02:55:00,
2013-06-22 23:00:00,62.5,57.6,30.22,SSE,161,0.0,0.0,84,0.00,,---,0.00,VWS V14.01,2013-06-23 03:00:00,
2013-06-22 23:05:00,62.2,57.6,30.22,SSE,161,0.0,0.0,85,0.00,,---,0.00,VWS V14.01,2013-06-23 03:05:00,
2013-06-22 23:10:00,62.0,57.8,30.22,SSE,161,0.0,0.0,86,0.00,,---,0.00,VWS V14.01,2013-06-23 03:10:00,
2013-06-22 23:15:00,61.9,57.7,30.22,SSE,161,0.0,0.0,86,0.00,,---,0.00,VWS V14.01,2013-06-23 03:15:00,
2013-06-22 23:20:00,61.8,57.2,30.22,SSE,161,0.0,0.0,85,0.00,,---,0.00,VWS V14.01,2013-06-23 03:20:00,
2013-06-22 23:25:00,61.7,57.5,30.22,SSE,161,0.0,0.0,86,0.00,,---,0.00,VWS V14.01,2013-06-23 03:25:00,
2013-06-22 23:30:00,61.5,57.9,30.22,SSE,161,0.0,0.0,88,0.00,,---,0.00,VWS V14.01,2013-06-23 03:30:00,
2013-06-22 23:35:00,61.4,57.8,30.22,SSE,162,0.0,0.0,88,0.00,,---,0.00,VWS V14.01,2013-06-23 03:35:00,
2013-06-22 23:40:00,61.2,57.6,30.22,SSE,161,0.0,0.0,88,0.00,,---,0.00,VWS V14.01,2013-06-23 03:40:00,
2013-06-22 23:45:00,61.0,57.4,30.22,SSE,161,0.0,0.0,88,0.00,,---,0.00,VWS V14.01,2013-06-23 03:45:00,
2013-06-22 23:51:00,60.8,57.2,30.22,SSE,161,0.0,0.0,88,0.00,,---,0.00,VWS V14.01,2013-06-23 03:51:00,
2013-06-22 23:56:00,60.7,57.4,30.22,SSE,161,0.0,0.0,89,0.00,,---,0.00,VWS V14.01,2013-06-23 03:56:00,